Location: Sigmaringen
(48.0900°N, 9.2120°E)
Time: 22:52:43
(UTC+01:00)

ISS - Pass Details

Date: 08 January 2018
Orbit: 402 x 407 km, 51.6° (Epoch: 18 January)

Event Time Altitude Azimuth Distance (km) Brightness Sun altitude
Exits shadow 05:06:13 12° 66° (ENE) 1,356 -0.5 -30.1°
Drops below altitude 10° 05:06:30 10° 68° (ENE) 1,469 -0.2 -30.1°
Sets 05:08:39 0° 75° (ENE) 2,332 1.1 -29.7°
